星链-33942 (STARLINK-33942)

导读 | 豆包AI

STARLINK-33942是美国太空探索技术公司(SpaceX)星链计划中的一颗卫星,于2025年5月13日发射升空。星链计划旨在构建全球卫星互联网星座,为全球偏远地区、海洋、航空等场景提供高速互联网接入服务,该卫星的发射进一步扩充了星链星座的在轨规模,推动全球网络覆盖能力提升。

基本信息
目录编号:
63974
目录名称:
STARLINK-33942
国际标识:
2025-099Y
轨道中心:
EARTH
卫星名称:
星链-33942
卫星全名:
星链-33942 (STARLINK-33942)
卫星状态:
在轨 (已飞行305 天)
发射日期:
2025-05-13 UTC
国别 :
美国 (US)
星等 :
--
轨道信息
数据来源 国际轨道数据
星历时间: 2026-03-14T06:27:27+0800
20小时前
查看轨道信息
半长轴: 6861.2km
偏心率: 0.0001438
轨道倾角: 43.004°
近地点辐角 288.825°
升交点赤经 148.947°
平近点角 71.244°
近地点: 482.076km
远地点: 484.05km
周期: 94.267分钟
每日圈数: 15.275756
详细信息
固有亮度:
5
最大亮度:
2.5
卫星平台:
Starlink V1.0
覆盖范围:
全球
运营商:
太空探索技术公司
运营商所在国:
美国
制造商(研发单位):
太空探索技术公司
制造商所在国:
美国
使用方式:
暂无
卫星简介
Starlink 计划是 SpaceX 推出的全球卫星互联网项目,通过发射低轨道卫星,为全球尤其是偏远地区提供高速、低延迟的互联网服务。自 2019 年起,Starlink 已部署数千颗卫星,旨在缩小全球数字鸿沟,推动互联网普及。该项目还为军事、航空等行业提供通信支持,带来广泛经济效益。
2D轨道图
3D轨道图
轨道高度分析图
轨道倾角分析图
轨道综合分析图
查看轨道综合分析图